Regional Weather Roundup
Issued by NWS

Home | Current Version | Previous Version | Text Only | Print | Product List | Glossary On
Versions: 1 2 3 4 5 6 7 8 9 10 11 12 13 14 15 16 17 18 19 20 21 22 23 24 25 26 27 28 29 30 31 32 33 34 35 36 37 38 39 40 41 42 43 44 45 46 47 48 49 50
000
ASUS43 KLSX 161707
RWRMO

WEATHER SUMMARY FOR MISSOURI
NATIONAL WEATHER SERVICE SPRINGFIELD MO
1200 PM CDT WED AUG 16 2017

NOTE: "FAIR" INDICATES FEW OR NO CLOUDS BELOW 12,000 FEET WITH NO
       SIGNIFICANT WEATHER AND/OR OBSTRUCTIONS TO VISIBILITY.
       CURRENT SKY AND/OR WEATHER CONDITIONS ARE NOT AVAILABLE FOR
       CHILLICOTHE AND FARMINGTON.

MOZ001>031-035>038-043-044-053-054-161800-
...NORTHERN AND WESTERN MISSOURI...

CITY           SKY/WX    TMP DP  RH WIND       PRES   REMARKS
KANSAS CTY INT LGT RAIN  76  74  93 SE15      29.77F
KANSAS C DTWN  CLOUDY    80  75  84 SE7       29.79F
LEE`S SUMMIT   CLOUDY    81  76  84 S7        29.84F
ST JOSEPH      LGT RAIN  76  75  97 SE15      29.76F
CHILLICOTHE      N/A     75  74  96 S6        29.86S
KIRKSVILLE     CLOUDY    76  73  91 S13       29.89S

$$
MOZ066>068-077>081-088>096-101>105-161800-
...SOUTHWEST MISSOURI...

CITY           SKY/WX    TMP DP  RH WIND       PRES   REMARKS
SPRINGFIELD    PTSUNNY   83  75  77 S17G26    29.92F HX  90
JOPLIN         CLOUDY    86  76  71 SW15      29.88F THUNDER HX  96
BRANSON        CLOUDY    79  77  94 N3        29.99R

$$
MOZ032>034-039>042-045>050-055>058-069>072-161800-
...CENTRAL MISSOURI...

CITY           SKY/WX    TMP DP  RH WIND       PRES   REMARKS
COLUMBIA       PTSUNNY   78  74  87 SE10      29.91F
JEFFERSON CITY MOSUNNY   80  77  90 SE10      29.90F
ROLLA          PTSUNNY   83  76  79 S10       29.95F HX  91
SEDALIA        MOSUNNY   85  78  80 S10       29.88F HX  96
WHITEMAN AFB   TSTM      79  79 100 W10       29.87
WARRENSBURG    CLOUDY    77  72  83 SW7       29.87R
OSAGE BEACH    CLOUDY    85  75  72 S13       29.91F HX  93

$$
MOZ051-052-059>065-161800-
...EAST CENTRAL MISSOURI...

CITY           SKY/WX    TMP DP  RH WIND       PRES   REMARKS
ST LOUIS INTL  CLOUDY    85  74  69 VRB7      29.95S HX  92
SPIRIT OF STL  PTSUNNY   86  75  69 S6        29.93F HX  95
ST CHARLES     CLOUDY    84  74  71 S6        29.93F HX  91

$$
MOZ072>076-082>087-097>100-106>115-161800-
...SOUTH CENTRAL AND SOUTHEAST MISSOURI...

CITY           SKY/WX    TMP DP  RH WIND       PRES   REMARKS
CAPE GIRARDEAU CLOUDY    84  77  79 S9        29.97F HX  94
FARMINGTON     CLOUDY    78  75  90 S6        29.99F
POPLAR BLUFF   CLOUDY    86  79  79 S10       29.96F HX  99
WEST PLAINS    CLOUDY    84  74  71 SW9       30.00R HX  91

$$



USA.gov is the U.S. government's official web portal to all federal, state and local government web resources and services.